Погода в Мариинске

Погода в Мариинске : погода сейчас, прогноз погоды и архив. Всё, что Вы хотите узнать о погоде в Мариинске!

Хотите узнать прогноз погоды в Мариинске? Тогда Вам сюда: Погода в Мариинске

Поиск расширенной информации на нашем сайте:

Другие новости

Новости СМИ2

Главная страница сайта

Новости сайта

03.07.2017

Напоминаем, что на нашем специализированном сайте Метеоцентр.Азия вы можете получить высокодетализированные автоматические прогнозы погоды по пунктам России, СНГ и мира в авиационном формате (включающие направление и скорость ветра, видимость, явления погоды, количество и форму облачности, нижнюю и верхнюю границу облачности).


Погода в Мариинске - сегодня

Время (UTC), дата Ветер
(°,м/с) 
Видим.   Явления Облачность Т
(°С)
Тd
(°С)
f(%) Тe
(°С)
Pmin
(гПа)
dP
(гПа)
Po
(мм)
O2
(г/м3)
Тmin Tmax R s Состояние
почвы
06 16.10.17 190 (Ю) 20000 м    10/5 600 м кучево-дожд., верхняя 
[Cb calv|Ci sp]
+10.8 +3.3 60 +10  1013.3  0.2  747  289           
09 16.10.17 220 (ЮЗ) 4{11}  10 км  слаб. ливневой дождь  10/10 600 м кучево-дожд. 
[Cb calv]
+10.2 +4.4 67 +9  1013.4  0.1  747  289           
12 16.10.17 220 (ЮЗ) 20000 м  {ливн. осадки}  10/10 600 м кучево-дожд. 
[Cb calv]
+6.9 +5.3 90 +6  1014.7  748  293    +11     
15 16.10.17 260 (З) 10 км  слаб. ливневой дождь  10/10 600 м кучево-дожд. 
[Cb calv]
+6.4 +5 91 +5  1017.2  2.5  750  294           
18 16.10.17 250 (З) 20000 м  {ливн. осадки}  10/6 600 м кучево-дожд., верхняя 
[Cb calv|Ci sp]
+4.6 +3.6 93 +4  1019.6  2.1  751  297           
21 16.10.17 280 (З) 20000 м    10/5 600 м кучево-дожд., верхняя 
[Cb calv|Ci sp]
+3.3 +2.5 94 +4  1022  2.4  753  299           
00 17.10.17 340 (С) 20000 м    10/4 600 м кучево-дожд., верхняя 
[Cb calv|Ci sp]
+1 -0.7 88 +2  1024.3  2.1  755  303  +0.9    0.0     
03 17.10.17 310 (СЗ) 20000 м    10/8 600 м кучево-дожд., средняя 
[Cb calv|Ac As]
+1.1 +0 92 +2  1026.6  2.3  756  304           
06 17.10.17 тихо ()   20000 м  {ливн. осадки}  10/10 600 м кучево-дожд. 
[Cb calv]
+2 +0.4 89 +2  1027.6  1.1  757  303           
09 17.10.17 тихо ()   20000 м  слаб. ливневой снег  10/10 600 м кучево-дожд. 
[Cb calv]
+2.4 -0.6 81 +2  1027.6  757  302           
12 17.10.17 тихо ()   20000 м  {ливн. осадки}  10/10 600 м кучево-дожд. 
[Cb calv]
+1 +0.5 96 +1  1028.1  0.4  757  304    +2.7  0.3     
15 17.10.17 тихо ()   20000 м    10/3 600 м кучево-дожд., верхняя 
[Cb calv|Ci sp]
+0.8 +0.3 96 +1  1027.8  -0.4  757  304           
18 17.10.17 тихо ()   20000 м    10/3 600 м кучево-дожд., верхняя 
[Cb calv|Ci sp]
+0.8 +0.3 96 +1  1026.1  -1.7  756  304           
21 17.10.17 060 (СВ) 20000 м    10/6 600 м кучево-дожд., средняя 
[Cb calv|As op]
+1 -0.1 92 1024.5  -1.5  755  303           
00 18.10.17 070 (В) 20000 м    10/0 верхняя 
[Ci sp]
+1.2 +0.1 92 +1  1023.1  -1.4  754  302  +0.6         
03 18.10.17 040 (СВ) 20000 м    10/6 600 м кучево-дожд., средняя 
[Cb calv|As op]
+1.6 +0.2 90 1022.1  -0.9  753  302           
06 18.10.17 090 (В) 20000 м    8/8 600 м кучево-дожд. 
[Cb calv]
+5.8 +0.4 68 +4  1020.3  -1.6  752  297           
09 18.10.17 050 (СВ) 20000 м    10/10 600 м кучево-дожд. 
[Cb calv]
+5.3 +0.7 72 +4  1018.5  -1.8  750  297           
12 18.10.17 070 (В) 20000 м    10/10 600 м кучево-дожд. 
[Cb calv]
+4.2 -0.3 72 +4  1018.4  -0.2  750  298    +6.1       
15 18.10.17 070 (В) 20000 м    10/10 600 м кучево-дожд. 
[Cb calv]
+3.1 -0.7 76 +2  1018.3  -0.2  750  299           
18 18.10.17 060 (СВ) 20000 м    10/10 600 м кучево-дожд. 
[Cb calv]
+3 +0.3 82 +2  1017.3  -0.9  749  299           
21 18.10.17 070 (В) 20000 м    10/10 600 м кучево-дожд. 
[Cb calv]
+2.9 +0.5 84 +4  1016.2  -1.1  749  298           
00 19.10.17 090 (В) 20000 м    10/10 600 м кучево-дожд. 
[Cb calv]
+2.3 +1.3 93 +3  1016.2  749  299  +2.1         
03 19.10.17 080 (В) 20000 м    10/8 600 м кучево-дожд., верхняя 
[Cb calv|Ci sp]
+2 +0.9 92 +1  1016.5  0.3  749  299  +1.8         
06 19.10.17 080 (В) 20000 м    10/5 600 м кучево-дожд., верхняя 
[Cb calv|Ci sp]
+3.2 +1.4 88 +3  1017.3  0.8  749  298           
Время (UTC), дата Ветер
(°,м/с) 
Видим.   Явления Облачность Т
(°С)
Тd
(°С)
f(%) Тe
(°С)
Pmin
(гПа)
dP
(гПа)
Po
(мм)
O2
(г/м3)
Тmin Tmax R s Состояние
почвы

Для получения пояснительной информации подведите курсор к названию столбца.

ПОГОДА в Мариинске - архив

Всё, что Вы хотите узнать о погоде в Мариинске - удобно и подробно!

Выберите нужную дату (начиная с 1 января 2015* года) и нажмите кнопку "Найти".
Будут отображены архивные сводки погоды по пункту Мариинск, начиная с указанной даты.


Отображать данные в формате CSV (для использования в таблицах Excel)


Внимание! Наш архив погоды предназначен исключительно для личного некоммерческого использования в познавательных целях. Если Вам необходимы официальные справки о состоянии погоды (для производственных, юридических, коммерческих и т.п. целей), обращайтесь в органы Росгидромета.

*Примечание: данная дата относится к архиву по метеостанциям СССР (Россия, СНГ, Балтия).
Архив по метеостанциям Зарубежной Европы и Азии (кроме Китая) хранится 10 дней, по другим регионам земного шара (Китай, Африка, Америка, Австралия, Океания) - 1 день.

Мариинск - район местоположения метеостанции


Название, широта, долгота, высота метеостанции:
Мариинск 56.2°ш. 87.8°д. 140 м над ур. моря [Российская Федерация]

Дополнительная информация

В oтличие oт бoльшинства пoгoдных сайтoв мы публикуем пoдрoбную метеoинфoрмацию в детальнoм прoфессиoнальнoм фoрмате.

Характеристики температуры и влажнoсти вoздуха измеряются на высoте 2 м в тени вдали oт зданий и деревьев.
Скoрoсть ветра измеряется на высoте 10 м (на урoвне рoста челoвека скoрoсть ветра ниже в 1.5-2 раза). Если метеoстанция нахoдится в гoрoде или в лесу, тo скoрoсть ветра занижена на 2-4 м/с пo сравнению с oткрытым местoм. Скoрoсть ветра над акватoриями крупных рек и oзёр, а также на вершинах хoлмoв на 2-5 м/с выше, чем в oбычных услoвиях.
Атмoсфернoе давление в разных тoчках местнoсти мoжет значительнo oтличаться oт давления на метеoстанции, в зависимoсти oт услoвий рельефа (при пoдъёме на 10 м давление пoнижается примернo на 1 мм рт.ст.).